Home   Weather   Hohhot   Past weeks

Flag for China Past Weather in Hohhot, Inner Mongolia, China — Yesterday and Last 2 Weeks

Now
23 °F

Light snow. Ice fog.


Feels Like: 18 °F
Forecast: 16 / 34 °F
Wind: 3 mph from Northeast

Location: Hohhot Airport

Current Time: Feb 21, 2017 at 8:50:43 am

Latest Report: Feb 21, 2017 at 8:00 am


Visibility: 1 mi

Pressure: 30.15 "Hg (26.36 "Hg at 1053m altitude)

Humidity: 93%

Dew Point: 21 °F

Location of HohhotLocation

Past Weather in Hohhot — Graph

°F

Hohhot Temperature Yesterday

Maximum temperature yesterday: 36 °F (at 2:00 pm)
Minimum temperature yesterday: 5 °F (at 7:00 am)
Average temperature yesterday: 22 °F

High & Low Weather Summary for the Past Weeks

 TemperatureHumidityPressure
High48 °F (Feb 15, 4:00 pm)93% (Feb 7, 7:00 am)30.48 "Hg (Feb 7, 7:00 am)
Low-6 °F (Feb 9, 7:00 am)10% (Feb 20, 2:00 pm)29.68 "Hg (Feb 19, 4:00 am)
Average22 °F48%30.23 "Hg
* Reported Feb 6 7:00 am — Feb 21 7:00 am, Hohhot, Weather by CustomWeather, © 2017

Note: Actual official high and low records may vary slightly from our data, if they occured in-between our weather recording intervals... More about our weather records

Advertising

Hohhot Weather History for the Previous 24 Hours

Scroll right to see more
 ConditionsComfort  
Time TempWeatherWind HumidityBarometerVisibility
7:00 am
Tue, Feb 21
23 °FLight snow. Ice fog.3 mph93%30.15 "Hg1 mi
6:00 am23 °FLight snow. Ice fog.3 mph93%30.18 "Hg1 mi
5:00 am25 °FLight snow. Ice fog.6 mph86%30.18 "Hg1 mi
4:00 am28 °FPassing clouds.6 mph26%30.18 "HgN/A
3:00 am28 °FPassing clouds.3 mph20%30.15 "HgN/A
2:00 am27 °FPassing clouds.3 mph22%30.15 "HgN/A
1:00 am27 °FPassing clouds.8 mph22%30.15 "HgN/A
12:00 am27 °FPassing clouds.6 mph22%30.15 "HgN/A
11:00 pm
Mon, Feb 20
27 °FPassing clouds.8 mph22%30.18 "HgN/A
10:00 pm25 °FPassing clouds.6 mph23%30.18 "HgN/A
9:00 pm25 °FClear.6 mph21%30.18 "Hg10 mi
8:00 pm27 °FClear.10 mph20%30.18 "Hg10 mi
7:00 pm28 °FClear.10 mph17%30.18 "Hg10 mi
6:00 pm32 °FPassing clouds.10 mph12%30.18 "HgN/A
5:00 pm36 °FSunny.10 mph10%30.18 "Hg10 mi
4:00 pm36 °FSunny.1 mph10%30.21 "Hg10 mi
3:00 pm36 °FSunny.6 mph11%30.21 "Hg10 mi
2:00 pm36 °FPassing clouds.8 mph10%30.21 "HgN/A
1:00 pm32 °FPassing clouds.15 mph15%30.24 "HgN/A
12:00 pm28 °FPassing clouds.17 mph17%30.27 "HgN/A
11:00 am25 °FSunny.13 mph23%30.30 "Hg10 mi
10:00 am21 °FSunny.10 mph30%30.33 "Hg10 mi
9:00 am14 °FPassing clouds.6 mph44%30.36 "HgN/A
8:00 am7 °FSunny.6 mph56%30.33 "Hg10 mi
Weather by CustomWeather, © 2017

See weather overviewHow to use our weather pages